Regional Weather Roundup
Issued by NWS

Home | Current Version | Previous Version | Text Only | Print | Product List | Glossary Off
Versions: 1 2 3 4 5 6 7 8 9 10 11 12 13 14 15 16 17 18 19 20 21 22 23 24 25 26 27 28 29 30 31 32 33 34 35 36 37 38 39 40 41 42 43 44 45 46 47 48 49 50

000
ASUS45 KABQ 310201
RWRNM
WEATHER ROUNDUP FOR NEW MEXICO
NATIONAL WEATHER SERVICE ALBUQUERQUE NM
700 PM MST FRI JAN 30 2015

NOTE: "FAIR" MEANS FEW OR NO CLOUDS BELOW 12,000 FEET AGL WITH NO
       SIGNIFICANT WEATHER OR OBSTRUCTIONS TO VISION.

      THIS PRODUCT IS RELEASED AS TWO VERSIONS.  ONE VERSION NEAR
      THE TOP OF THE HOUR CONTAINING PRELIMINARY DATA FROM ALBUQUERQUE
      AND OTHER STATIONS.  A FINAL VERSION WITH ADDITIONAL DATA IS
      ISSUED ABOUT 10 MINUTES AFTER THE HOUR.

NMZ501-503-504-510>518-310300-
NORTHWEST PLATEAU/NORTHCENTRAL MOUNTAINS

CITY           SKY/WX    TMP DP  RH WIND       PRES   REMARKS
FARMINGTON     LGT RAIN  34  33  96 E8        30.01S WCI  27
SANTA FE       LGT SNOW  31  29  92 S9        30.08F FOG     WCI  23
TAOS           CLOUDY    28  27  93 CALM      30.09F

$$
NMZ402-403-502-505>509-310300-
WESTCENTRAL MOUNTAINS/SOUTHWEST MOUNTAINS

CITY           SKY/WX    TMP DP  RH WIND       PRES   REMARKS
GALLUP         MIX PCPN  34  31  88 NE9       29.98S WCI  27
SILVER CITY    CLOUDY    41  39  93 E6        30.02F

$$
NMZ407-409-411-412-310300-
SOUTHERN DESERTS

CITY           SKY/WX    TMP DP  RH WIND       PRES   REMARKS
DEMING         LGT RAIN  43  42  97 E13       30.03R
HOLLOMAN AFB   LGT RAIN  43  43 100 N3        30.08R
ALAMOGORDO     LGT RAIN  41  41 100 NW3       30.10R
T OR C         LGT RAIN  40  39  97 NE6       30.05S

$$
NMZ519>523-310300-
CENTRAL VALLEYS/CENTRAL HIGHLANDS

CITY           SKY/WX    TMP DP  RH WIND       PRES   REMARKS
ALBUQUERQUE    CLOUDY    34  32  92 N9        30.07F WCI  27
DOUBLE EAGLE   LGT SNOW  30  30 100 N12       30.08S WCI  21
CLINES CORNERS MIX PCPN  27  25  92 E9        30.08S VSB 1/4 WCI  18
BELEN          LGT RAIN  33  33 100 NW8       30.08S WCI  26
SOCORRO        NOT AVBL

$$
NMZ524>526-539-540-310300-
SOUTHCENTRAL MOUNTAINS

CITY           SKY/WX    TMP DP  RH WIND       PRES   REMARKS
RUIDOSO        NOT AVBL

$$
NMZ527>531-310300-
NORTHEAST HIGHLANDS/NORTHEAST PLAINS

CITY           SKY/WX    TMP DP  RH WIND       PRES   REMARKS
LAS VEGAS      LGT SNOW  27  26  96 S12       30.10F FOG     WCI  17
RATON          CLOUDY    29  28  96 CALM      30.11S
CLAYTON        CLOUDY    33  31  92 S18       30.14S WCI  22

$$
NMZ532>537-310300-
EASTCENTRAL PLAINS

CITY           SKY/WX    TMP DP  RH WIND       PRES   REMARKS
TUCUMCARI      CLOUDY    36  33  89 S8        30.19S WCI  30
CANNON AFB     NOT AVBL
CLOVIS AIRPORT CLOUDY    36  30  80 SE12      30.19F WCI  27

$$
NMZ028-029-538-310300-
SOUTHEAST PLAINS

CITY           SKY/WX    TMP DP  RH WIND       PRES   REMARKS
ROSWELL        LGT RAIN  39  34  82 S5        30.17S
ARTESIA        DRIZZLE   39  37  93 S5        30.19S
CARLSBAD       LGT RAIN  42  35  76 CALM      30.17F


$$



USA.gov is the U.S. government's official web portal to all federal, state and local government web resources and services.